Weather History for KCBM - November, 2013

Change the Weather History Date:

Tuesday, November 12, 2013

  Actual Average Record
Temperature  
Mean Temperature 43 °F -  
Max Temperature 51 °F 62 °F 78 °F (2003)
Min Temperature 33 °F 42 °F 31 °F (2011)
Degree Days  
Heating Degree Days 22    
Moisture  
Dew Point 33 °F    
Average Humidity 65    
Maximum Humidity 100    
Minimum Humidity 37    
Precipitation  
Precipitation 0.00 in - - ()
Sea Level Pressure  
Sea Level Pressure 30.42 in    
Wind  
Wind Speed 11 mph (North)    
Max Wind Speed 25 mph    
Max Gust Speed 31 mph    
Visibility 10 miles    
Events      
Averages and records for this station are not official NWS values.
T = Trace of Precipitation, MM = Missing Value Source: NWS Daily Summary

Daily Weather History Graph

Daily Weather History Graph

Search for Another Location

Airport or City:

Trip Planner

Search our weather history database for the weather conditions in past years. The results will help you decide how hot, cold, wet, or windy it might be!

Date:

Astronomy

Nov. 12, 2013 Rise Set
Actual Time 6:23 AM CST 4:52 PM CST
Civil Twilight 5:56 AM CST 5:18 PM CST
Nautical Twilight 5:26 AM CST 5:48 PM CST
Astronomical Twilight 4:57 AM CST 6:18 PM CST
Moon 1:54 PM CST (11/12) 1:26 AM CST (11/12)
Length of Visible Light 11h 22m
Length of Day
10h 29m
Waxing Gibbous, 76% of the Moon is Illuminated
Nov 12
Waxing Gibbous
Nov 17
Full
Nov 25
Last Quarter
Dec 2
New
Dec 9
First Quarter

Hourly Weather History & Observations

Time (CST) Temp. Windchill Dew Point Humidity Pressure Visibility Wind Dir Wind Speed Gust Speed Precip Events Conditions
12:58 AM 44.1 °F - 43.0 °F 96% 30.22 in 10.0 mi Calm Calm - N/A   Clear
1:58 AM 43.2 °F - 42.3 °F 97% 30.22 in 7.0 mi Calm Calm - N/A   Clear
2:58 AM 42.3 °F - 41.4 °F 97% 30.22 in 10.0 mi Calm Calm - N/A   Clear
3:58 AM 41.5 °F - 41.0 °F 98% 30.23 in 8.0 mi Calm Calm - N/A   Clear
4:58 AM 40.3 °F - 39.7 °F 98% 30.25 in 10.0 mi WNW 2.3 mph - N/A   Clear
5:43 AM 42.8 °F 38.6 °F 42.8 °F 100% 30.26 in 7.0 mi North 6.9 mph - N/A   Clear
5:58 AM 45.1 °F 39.9 °F 44.8 °F 99% 30.27 in 4.0 mi North 10.4 mph - 0.00 in   Clear
6:02 AM 46.4 °F 41.5 °F 44.6 °F 93% 30.27 in 10.0 mi North 10.4 mph - N/A   Clear
6:58 AM 48.2 °F - 44.6 °F 87% 30.31 in 10.0 mi North 10.4 mph - 0.00 in   Partly Cloudy
7:58 AM 51.4 °F - 43.9 °F 75% 30.35 in 10.0 mi North 23.0 mph 27.6 mph N/A   Scattered Clouds
8:18 AM 51.8 °F - 44.6 °F 76% 30.35 in 10.0 mi North 20.7 mph 25.3 mph N/A   Overcast
8:38 AM 50.0 °F - 42.8 °F 76% 30.36 in 10.0 mi NNW 17.3 mph - N/A   Overcast
8:58 AM 50.4 °F - 41.2 °F 71% 30.39 in 10.0 mi North 20.7 mph 27.6 mph N/A   Overcast
9:43 AM 50.0 °F - 39.2 °F 66% 30.41 in 10.0 mi NNW 18.4 mph 25.3 mph N/A   Overcast
9:53 AM 50.0 °F - 39.2 °F 66% 30.42 in 10.0 mi North 21.9 mph 27.6 mph N/A   Overcast
9:58 AM 49.3 °F - 38.1 °F 65% 30.43 in 10.0 mi North 20.7 mph 27.6 mph N/A   Overcast
10:58 AM 48.0 °F - 37.2 °F 66% 30.45 in 10.0 mi NNW 17.3 mph 26.5 mph N/A   Overcast
11:18 AM 48.2 °F - 33.8 °F 58% 30.44 in 10.0 mi North 18.4 mph 24.2 mph N/A   Overcast
11:33 AM 48.2 °F - 32.0 °F 54% 30.44 in 10.0 mi North 21.9 mph 31.1 mph N/A   Overcast
11:38 AM 50.0 °F - 32.0 °F 50% 30.44 in 10.0 mi North 18.4 mph 27.6 mph N/A   Overcast
11:43 AM 50.0 °F - 32.0 °F 50% 30.45 in 10.0 mi NNW 25.3 mph 31.1 mph N/A   Overcast
11:48 AM 50.0 °F - 32.0 °F 50% 30.44 in 10.0 mi North 18.4 mph 31.1 mph N/A   Mostly Cloudy
11:58 AM 48.9 °F - 32.7 °F 54% 30.45 in 10.0 mi North 24.2 mph 27.6 mph N/A   Mostly Cloudy
12:58 PM 47.1 °F - 30.9 °F 53% 30.46 in 10.0 mi North 18.4 mph 28.8 mph N/A   Mostly Cloudy
1:28 PM 48.2 °F - 30.2 °F 50% 30.45 in 10.0 mi NNW 20.7 mph 26.5 mph N/A   Scattered Clouds
1:33 PM 48.2 °F - 30.2 °F 50% 30.44 in 10.0 mi North 18.4 mph 26.5 mph N/A   Mostly Cloudy
1:38 PM 48.2 °F - 30.2 °F 50% 30.44 in 10.0 mi North 16.1 mph - N/A   Scattered Clouds
1:58 PM 48.7 °F - 27.7 °F 44% 30.45 in 10.0 mi NNW 15.0 mph 27.6 mph N/A   Partly Cloudy
2:58 PM 48.4 °F - 25.3 °F 41% 30.46 in 10.0 mi North 16.1 mph 21.9 mph N/A   Clear
3:58 PM 47.7 °F - 22.1 °F 37% 30.48 in 10.0 mi North 19.6 mph 25.3 mph N/A   Clear
4:58 PM 44.2 °F 38.0 °F 23.4 °F 44% 30.51 in 10.0 mi North 12.7 mph - N/A   Clear
5:58 PM 40.5 °F 33.2 °F 23.0 °F 50% 30.53 in 10.0 mi NNW 12.7 mph - N/A   Clear
6:58 PM 39.9 °F 32.1 °F 21.7 °F 48% 30.54 in 10.0 mi North 13.8 mph - N/A   Clear
7:58 PM 38.8 °F 31.6 °F 21.0 °F 49% 30.57 in 10.0 mi North 11.5 mph - N/A   Clear
8:58 PM 37.9 °F 30.9 °F 20.3 °F 49% 30.58 in 10.0 mi North 10.4 mph - N/A   Clear
9:58 PM 36.7 °F 30.5 °F 19.8 °F 50% 30.59 in 10.0 mi North 8.1 mph - N/A   Clear
10:58 PM 35.6 °F 28.6 °F 19.4 °F 52% 30.60 in 10.0 mi North 9.2 mph - N/A   Clear
11:58 PM 33.6 °F 26.8 °F 19.9 °F 57% 30.60 in 10.0 mi North 8.1 mph - N/A   Clear